Regional Weather Roundup
Issued by NWS

Home | Current Version | Previous Version | Graphics & Text | Print | Product List | Glossary On
Versions: 1 2 3 4 5 6 7 8 9 10 11 12 13 14 15 16 17 18 19 20 21 22 23 24 25 26 27 28 29 30 31 32 33 34 35 36 37 38 39 40 41 42 43 44 45 46 47 48 49 50
000
ASUS45 KSLC 181710
RWRUT

UTAH REGIONAL WEATHER ROUNDUP
NATIONAL WEATHER SERVICE SALT LAKE CITY UT
1100 AM MDT THU SEP 18 2014

UTZ001>011-023>025-181800-

NORTHERN UTAH

CITY           SKY/WX    TMP DP  RH WIND       PRES   REMARKS
HILL AFB       NOT AVBL
LOGAN          SUNNY     78  51  38 NE3       29.91F
OGDEN          SUNNY     83  49  30 SE17      29.92S
PROVO AIRPORT  SUNNY     77  50  38 VRB3      29.98F
SALT LAKE CITY MOSUNNY   83  46  27 SE13      29.91F
VERNAL         SUNNY     69  43  38 SE3       30.07F
WENDOVER       SUNNY     81  48  32 SE6       29.90S
HEBER CITY     SUNNY     68  43  40 CALM      30.05F
WEST JORDAN    SUNNY     81  45  28 SE14      29.96S

$$

UTZ012>022-026-027-181800-

SOUTHERN UTAH

CITY           SKY/WX    TMP DP  RH WIND       PRES   REMARKS
BRYCE CANYON   SUNNY     66  49  54 SE10      30.20F
CEDAR CITY     SUNNY     74  52  46 SW10      30.04F
MILFORD        SUNNY     78  51  38 S10G20    30.00F
MOAB/CYNLANDS  SUNNY     79  44  28 SE8       30.01S
PRICE          SUNNY     74  44  34 SE9       30.10F
ST GEORGE      SUNNY     82  54  36 E6        29.91S
KANAB            N/A     77  48  36 CALM      30.05F

$$

REGIONAL REPORTS     COLORADO/ARIZONA

CITY           SKY/WX    TMP DP  RH WIND       PRES   REMARKS
CRAIG, CO      SUNNY     71  44  37 CALM      30.12F
GRAND JUNCTION SUNNY     74  41  30 S6        30.05S
RIFLE          SUNNY     70  42  36 VRB3      30.10F
MONTROSE       SUNNY     74  43  32 CALM      30.12F
CORTEZ         SUNNY     70  47  43 CALM      30.12F
PAGE, AZ       SUNNY     78  53  41 VRB5      30.00F
GRAND CANYON   PTSUNNY   69  51  52 VRB5      30.14S
KINGMAN        MOSUNNY   82  60  47 S8        29.93F
FLAGSTAFF      MOSUNNY   67  53  61 NE6       30.17S

$$

REGIONAL REPORTS    NEVADA/IDAHO/WYOMING

CITY           SKY/WX    TMP DP  RH WIND       PRES   REMARKS
LAS VEGAS, NV  MOSUNNY   90  54  29 S12       29.78S
ELY            SUNNY     76  49  38 SE16G22   30.04F
ELKO           MOSUNNY   80  48  32 SW5       29.92F
POCATELLO, ID  MOSUNNY   82  52  35 W14       29.89S
BURLEY         SUNNY     77  47  34 SW17      29.88
EVANSTON, WY   SUNNY     73  43  33 SW15      30.13F
ROCK SPRINGS   SUNNY     71  35  26 VRB3      30.12F

$$



USA.gov is the U.S. government's official web portal to all federal, state and local government web resources and services.